Walterboro, SC

11:30 AM EDT on October 17, 2017 (GMT -0400)
Lowcountry Regional

Weather History for KRBW - July, 2013

Change the Weather History Date:

Tuesday, July 23, 2013

  Actual Average Record
Temperature  
Mean Temperature 81 °F -  
Max Temperature 89 °F 91 °F 102 °F (2015)
Min Temperature 73 °F 69 °F 71 °F (2012)
Cooling Degree Days 16    
Growing Degree Days 31 (Base 50)    
Moisture  
Dew Point 74 °F    
Average Humidity 84    
Maximum Humidity 100    
Minimum Humidity 55    
Precipitation  
Precipitation 0.00 in - - ()
Sea Level Pressure  
Sea Level Pressure 29.90 in    
Wind  
Wind Speed 8 mph (WSW)    
Max Wind Speed 15 mph    
Max Gust Speed 18 mph    
Visibility 10 miles    
Events      
Averages and records for this station are not official NWS values.
T = Trace of Precipitation, MM = Missing Value Source: NWS Daily Summary

Daily Weather History Graph

Daily Weather History Graph

Search for Another Location

Airport or City:

Trip Planner

Search our weather history database for the weather conditions in past years. The results will help you decide how hot, cold, wet, or windy it might be!

Date:

Astronomy

Jul. 23, 2013 Rise Set
Actual Time 6:30 AM EDT 8:27 PM EDT
Civil Twilight 6:02 AM EDT 8:55 PM EDT
Nautical Twilight 5:29 AM EDT 9:28 PM EDT
Astronomical Twilight 4:53 AM EDT 10:03 PM EDT
Moon 9:03 PM EDT (7/23) 7:30 AM EDT (7/23)
Length of Visible Light 14h 52m
Length of Day
13h 57m
Full, 99% of the Moon is Illuminated
Jul 23
Full
Jul 29
Last Quarter
Aug 6
New
Aug 14
First Quarter
Aug 20
Full

Hourly Weather History & Observations

Time (EDT) Temp. Heat Index Dew Point Humidity Pressure Visibility Wind Dir Wind Speed Gust Speed Precip Events Conditions
12:15 AM 73.4 °F - 73.4 °F 100% 29.96 in 10.0 mi SSW 5.8 mph - N/A   Scattered Clouds
12:35 AM 73.4 °F - 73.4 °F 100% 29.96 in 10.0 mi SW 6.9 mph - N/A   Clear
12:55 AM 73.4 °F - 73.4 °F 100% 29.96 in 10.0 mi SSW 6.9 mph - N/A   Scattered Clouds
1:15 AM 73.4 °F - 73.4 °F 100% 29.95 in 10.0 mi SW 9.2 mph - N/A   Scattered Clouds
1:35 AM 73.4 °F - 73.4 °F 100% 29.95 in 10.0 mi SW 8.1 mph - N/A   Mostly Cloudy
1:55 AM 75.2 °F - 75.2 °F 100% 29.94 in 10.0 mi SW 9.2 mph - N/A   Overcast
2:15 AM 75.2 °F - 75.2 °F 100% 29.94 in 10.0 mi WSW 8.1 mph - N/A   Overcast
2:35 AM 75.2 °F - 75.2 °F 100% 29.94 in 10.0 mi SW 10.4 mph 16.1 mph N/A   Overcast
2:55 AM 75.2 °F - 75.2 °F 100% 29.93 in 10.0 mi SW 11.5 mph 16.1 mph N/A   Overcast
3:15 AM 75.2 °F - 75.2 °F 100% 29.93 in 10.0 mi WSW 9.2 mph - N/A   Overcast
3:35 AM 75.2 °F - 75.2 °F 100% 29.92 in 10.0 mi WSW 8.1 mph - N/A   Overcast
3:55 AM 75.2 °F - 75.2 °F 100% 29.92 in 10.0 mi WSW 8.1 mph - N/A   Overcast
4:15 AM 73.4 °F - 73.4 °F 100% 29.91 in 10.0 mi WSW 8.1 mph - N/A   Mostly Cloudy
4:35 AM 73.4 °F - 73.4 °F 100% 29.91 in 10.0 mi SW 9.2 mph - N/A   Scattered Clouds
4:55 AM 73.4 °F - 73.4 °F 100% 29.92 in 10.0 mi WSW 6.9 mph - N/A   Scattered Clouds
5:15 AM 73.4 °F - 73.4 °F 100% 29.93 in 10.0 mi SW 5.8 mph - N/A   Overcast
5:35 AM 73.4 °F - 73.4 °F 100% 29.93 in 10.0 mi SW 6.9 mph - N/A   Overcast
5:55 AM 73.4 °F - 73.4 °F 100% 29.93 in 10.0 mi WSW 5.8 mph - N/A   Overcast
6:15 AM 73.4 °F - 73.4 °F 100% 29.94 in 10.0 mi WSW 6.9 mph - N/A   Overcast
6:35 AM 73.4 °F - 73.4 °F 100% 29.94 in 10.0 mi WSW 5.8 mph - N/A   Overcast
6:55 AM 73.4 °F - 73.4 °F 100% 29.94 in 10.0 mi WSW 5.8 mph - N/A   Overcast
7:15 AM 73.4 °F - 73.4 °F 100% 29.94 in 10.0 mi SW 4.6 mph - N/A   Mostly Cloudy
7:35 AM 73.4 °F - 73.4 °F 100% 29.94 in 10.0 mi WSW 10.4 mph - N/A   Mostly Cloudy
7:55 AM 73.4 °F - 73.4 °F 100% 29.94 in 10.0 mi WSW 8.1 mph - N/A   Overcast
8:15 AM 75.2 °F - 75.2 °F 100% 29.94 in 10.0 mi WSW 8.1 mph - N/A   Overcast
8:35 AM 75.2 °F - 75.2 °F 100% 29.93 in 10.0 mi WSW 9.2 mph - N/A   Overcast
8:55 AM 77.0 °F - 77.0 °F 100% 29.93 in 10.0 mi WSW 9.2 mph - N/A   Overcast
9:15 AM 77.0 °F - 75.2 °F 94% 29.93 in 10.0 mi WSW 6.9 mph - N/A   Overcast
9:35 AM 78.8 °F - 75.2 °F 89% 29.93 in 10.0 mi WSW 11.5 mph - N/A   Overcast
9:55 AM 78.8 °F - 75.2 °F 89% 29.92 in 10.0 mi West 10.4 mph 16.1 mph N/A   Overcast
10:15 AM 78.8 °F - 75.2 °F 89% 29.93 in 10.0 mi West 8.1 mph - N/A   Overcast
10:35 AM 78.8 °F - 73.4 °F 83% 29.93 in 10.0 mi West 12.7 mph 17.3 mph N/A   Overcast
10:55 AM 80.6 °F 85.4 °F 73.4 °F 79% 29.93 in 10.0 mi WSW 12.7 mph - N/A   Overcast
11:15 AM 80.6 °F 85.4 °F 73.4 °F 79% 29.93 in 10.0 mi West 9.2 mph - N/A   Overcast
11:35 AM 80.6 °F 85.4 °F 73.4 °F 79% 29.93 in 10.0 mi WSW 13.8 mph 18.4 mph N/A   Mostly Cloudy
11:55 AM 82.4 °F 88.2 °F 73.4 °F 74% 29.93 in 10.0 mi WSW 10.4 mph - N/A   Mostly Cloudy
12:15 PM 82.4 °F 88.2 °F 73.4 °F 74% 29.93 in 10.0 mi West 9.2 mph 16.1 mph N/A   Overcast
12:35 PM 82.4 °F 88.2 °F 73.4 °F 74% 29.92 in 10.0 mi West 9.2 mph - N/A   Mostly Cloudy
12:55 PM 84.2 °F 90.9 °F 73.4 °F 70% 29.91 in 10.0 mi WSW 11.5 mph 16.1 mph N/A   Mostly Cloudy
1:15 PM 84.2 °F 90.9 °F 73.4 °F 70% 29.91 in 10.0 mi West 10.4 mph - N/A   Mostly Cloudy
1:35 PM 86.0 °F 91.8 °F 71.6 °F 62% 29.90 in 10.0 mi WSW 10.4 mph - N/A   Scattered Clouds
1:55 PM 86.0 °F 93.4 °F 73.4 °F 66% 29.89 in 7.0 mi West 10.4 mph - N/A   Mostly Cloudy
2:15 PM 87.8 °F 95.6 °F 73.4 °F 62% 29.89 in 10.0 mi WSW 12.7 mph - N/A   Mostly Cloudy
2:35 PM 87.8 °F 93.8 °F 71.6 °F 58% 29.88 in 10.0 mi West 15.0 mph 18.4 mph N/A   Scattered Clouds
2:55 PM 87.8 °F 93.8 °F 71.6 °F 58% 29.87 in 10.0 mi West 11.5 mph - N/A   Scattered Clouds
3:15 PM 87.8 °F 93.8 °F 71.6 °F 58% 29.86 in 10.0 mi West 11.5 mph - N/A   Mostly Cloudy
3:35 PM 87.8 °F 93.8 °F 71.6 °F 58% 29.86 in 10.0 mi West 10.4 mph 18.4 mph N/A   Scattered Clouds
4:15 PM 87.8 °F 93.8 °F 71.6 °F 58% 29.85 in 10.0 mi West 12.7 mph - N/A   Clear
4:35 PM 87.8 °F 93.8 °F 71.6 °F 58% 29.85 in 10.0 mi West 8.1 mph - N/A   Scattered Clouds
4:55 PM 89.6 °F 96.2 °F 71.6 °F 55% 29.84 in 10.0 mi WSW 11.5 mph 16.1 mph N/A   Scattered Clouds
5:15 PM 87.8 °F 93.8 °F 71.6 °F 58% 29.83 in 10.0 mi West 10.4 mph - N/A   Scattered Clouds
5:35 PM 87.8 °F 93.8 °F 71.6 °F 58% 29.84 in 10.0 mi West 8.1 mph - N/A   Clear
5:55 PM 87.8 °F 93.8 °F 71.6 °F 58% 29.83 in 10.0 mi WSW 8.1 mph - N/A   Clear
6:15 PM 87.8 °F 95.6 °F 73.4 °F 62% 29.83 in 10.0 mi WSW 8.1 mph - N/A   Clear
6:35 PM 87.8 °F 93.8 °F 71.6 °F 58% 29.83 in 10.0 mi WSW 9.2 mph - N/A   Clear
6:55 PM 87.8 °F 93.8 °F 71.6 °F 58% 29.83 in 10.0 mi WSW 8.1 mph - N/A   Clear
7:15 PM 86.0 °F 93.4 °F 73.4 °F 66% 29.83 in 10.0 mi WSW 6.9 mph - N/A   Clear
7:35 PM 86.0 °F 93.4 °F 73.4 °F 66% 29.83 in 10.0 mi WSW 9.2 mph - N/A   Clear
7:55 PM 84.2 °F 92.3 °F 75.2 °F 74% 29.83 in 10.0 mi SW 6.9 mph - N/A   Clear
8:15 PM 82.4 °F 89.5 °F 75.2 °F 79% 29.83 in 10.0 mi WSW 6.9 mph - N/A   Clear
8:35 PM 80.6 °F 87.1 °F 77.0 °F 89% 29.84 in 10.0 mi SW 4.6 mph - N/A   Clear
8:55 PM 80.6 °F 86.2 °F 75.2 °F 84% 29.85 in 10.0 mi WSW 5.8 mph - N/A   Clear
9:15 PM 80.6 °F 87.1 °F 77.0 °F 89% 29.86 in 10.0 mi WSW 5.8 mph - N/A   Clear
9:35 PM 80.6 °F 87.1 °F 77.0 °F 89% 29.86 in 10.0 mi WSW 5.8 mph - N/A   Clear
9:55 PM 80.6 °F 87.1 °F 77.0 °F 89% 29.86 in 10.0 mi WSW 4.6 mph - N/A   Clear
10:15 PM 80.6 °F 87.1 °F 77.0 °F 89% 29.86 in 10.0 mi WSW 4.6 mph - N/A   Clear
10:35 PM 80.6 °F 87.1 °F 77.0 °F 89% 29.86 in 10.0 mi WSW 5.8 mph - N/A   Clear
10:55 PM 80.6 °F 87.1 °F 77.0 °F 89% 29.86 in 10.0 mi WSW 4.6 mph - N/A   Clear
11:15 PM 80.6 °F 87.1 °F 77.0 °F 89% 29.86 in 10.0 mi WSW 4.6 mph - N/A   Clear
11:35 PM 78.8 °F - 77.0 °F 94% 29.87 in 10.0 mi WSW 4.6 mph - N/A   Clear
11:55 PM 78.8 °F - 77.0 °F 94% 29.86 in 10.0 mi WSW 6.9 mph - N/A   Scattered Clouds